Location: Gajan
(43.0218°N, 1.1244°E)
Time: 02:20:00
(UTC+00:00)

Cosmos 2333 Rocket - Pass Details

Date: 22 April 2021
Orbit: 838 x 864 km, 70.8° (Epoch: 15 May)

Event Time Altitude Azimuth Distance (km) Brightness Sun altitude
Rises 19:08:45 0° 333° (NNW) 3,450 6.2 -4.7°
Reaches altitude 10° 19:11:14 10° 333° (NNW) 2,507 5.5 -5.1°
Maximum altitude 19:17:00 79° 248° (WSW) 878 2.4 -6.1°
Drops below altitude 10° 19:22:41 10° 162° (SSE) 2,476 4.2 -7.0°
Sets 19:25:07 0° 161° (SSE) 3,404 4.9 -7.4°
